Miscellaneous Local Product
Issued by NWS Hastings, NE

Home | Current Version | Previous Version | Text Only | Print | Product List | Glossary Off
Versions: 1 2 3 4 5 6 7 8 9 10 11 12 13 14 15 16 17 18 19 20 21 22 23 24 25 26 27 28 29 30 31 32 33 34 35 36 37 38 39 40 41 42 43 44 45 46 47 48 49 50

195
AXUS43 KGID 231202
MISGRI

GID CWA HOURLY WEATHER ROUNDUP
NATIONAL WEATHER SERVICE HASTINGS NE
600 AM CST THU FEB 23 2017

NOTE: "FAIR" INDICATES FEW OR NO CLOUDS BELOW 12,000 FEET WITH NO
SIGNIFICANT WEATHER AND/OR OBSTRUCTIONS TO VISIBILITY.

...SOUTH CENTRAL NEBRASKA...

CITY           SKY/WX    TMP DP  RH WIND       PRES   REMARKS
GRAND ISLAND   CLOUDY    35  34  96 NE20G26   29.78R WCI  24
HASTINGS       CLOUDY    38  34  85 NE18      29.75S WCI  28
KEARNEY        CLOUDY    37  30  75 NE18      29.74F WCI  27
ORD            CLOUDY    31  29  92 NE15      29.80F FOG     WCI  20
YORK           CLOUDY    37  36  93 NE20G26   29.77S WCI  27
AURORA         CLOUDY    37  35  93 NE21      29.77S WCI  26
LEXINGTON      CLOUDY    36  32  87 NE23G29   29.73F WCI  24
HOLDREGE       CLOUDY    37  33  87 NE24G31   29.72R WCI  26
HEBRON         CLOUDY    41  36  82 NE13G18   29.74S

...NEBRASKA PANHANDLE...

CITY           SKY/WX    TMP DP  RH WIND       PRES   REMARKS
CHADRON        SNOW      29  27  92 NE17      29.79S VSB 1/2 WCI  17
ALLIANCE       LGT SNOW  28  26  92 NE13      29.73F VSB 3/4 WCI  17
SCOTTSBLUFF    LGT SNOW  29  26  89 E15       29.72F VSB 3/4 WCI  18
SIDNEY         CLOUDY    31  28  89 NE15      29.68S WCI  20

...WESTERN AND NORTH CENTRAL NEBRASKA...

CITY           SKY/WX    TMP DP  RH WIND       PRES   REMARKS
VALENTINE      LGT SNOW  28  25  88 NE14      29.85S VSB 3/4 WCI  17
AINSWORTH      LGT SNOW  29  29 100 NE14      29.84F WCI  18
ONEILL         CLOUDY    31  29  94 NE15      29.86R WCI  20
BROKEN BOW     CLOUDY    32  31  96 NE15      29.77R FOG     WCI  22
IMPERIAL       CLOUDY    33  31  92 NE18G29   29.67F WCI  22
NORTH PLATTE   CLOUDY    34  32  92 NE21G26   29.73F WCI  22
MCCOOK         CLOUDY    38  36  92 E23G30    29.68F WCI  27

...EASTERN NEBRASKA...

CITY           SKY/WX    TMP DP  RH WIND       PRES   REMARKS
NORFOLK        CLOUDY    33  30  88 NE13G23   29.82S WCI  24
SO SIOUX CITY  CLOUDY    37  32  82 NE9       29.85S WCI  30
TEKAMAH        CLOUDY    36  33  89 NE15      29.83R WCI  27
COLUMBUS       CLOUDY    36  30  80 NE20      29.82S WCI  25
ALBION         CLOUDY    34  32  93 NE13      29.82F FOG     WCI  25
OMAHA EPPLEY   CLOUDY    38  33  82 N15       29.81R WCI  29
OFFUTT AFB     CLOUDY    38  33  82 NE13G22   29.80R WCI  30
MILLARD        CLOUDY    40  36  84 NE6G17    29.81R
LINCOLN        CLOUDY    40  35  83 NE17      29.80R WCI  31
NEBRASKA CITY  CLOUDY    38  36  90 NE17      29.77S WCI  29
BEATRICE       CLOUDY    42  38  85 NE10      29.75S
FALLS CITY     MOCLDY    43  38  82 N7        29.75S

...NORTHERN KANSAS...

CITY           SKY/WX    TMP DP  RH WIND       PRES   REMARKS
GOODLAND       MOCLDY    33  30  88 NE17G25   29.60F WCI  22
HILL CITY      CLOUDY    42  37  82 E21G31    29.64F
NORTON         CLOUDY    37  32  81 NE17G23   29.66  WCI  28
PHILLIPSBURG   CLEAR     39  34  81 NE22      29.68F WCI  29
SMITH CENTER   PTCLDY    37  34  87 NE20      29.68F WCI  27
HAYS             N/A     45  36  70 NE18      29.59S
RUSSELL        CLOUDY    46  37  71 E21       29.58F
CONCORDIA      CLOUDY    44  38  79 E14       29.68F
SALINA         CLOUDY    52  38  58 NE14      29.66F
TOPEKA         CLOUDY    52  39  61 NE10      29.70F



USA.gov is the U.S. government's official web portal to all federal, state and local government web resources and services.